ANA814 VHHH-RJTT

Flight info

Callsign ANA814
Flight time 3h 29m
Altitude 35000
Route DALOL V631 ENVAR M750 BILLY Y21 AKSEL
Aircraft B77W/H-SDE1E2E3FGHIJ2J3J4J5M1RWXY/LB1D1

Departure

Time 2026-05-07 17:03
Airport Hong Kong International Airport (VHHH)

Arrival

Time 2026-05-07 20:32
Airport Tokyo Haneda International Airport (RJTT)
Time Latitude Longitude Altitude Speed Heading
2026-05-07 16:37 22.31296 113.92971 42 ft 0 kts 340°
2026-05-07 16:47 22.31296 113.92972 42 ft 2 kts 340°
2026-05-07 16:47 22.31280 113.92978 40 ft 2 kts 333°
2026-05-07 16:48 22.31266 113.92987 40 ft 2 kts 323°
2026-05-07 16:48 22.31254 113.92999 41 ft 2 kts 312°
2026-05-07 16:48 22.31244 113.93013 37 ft 2 kts 298°
2026-05-07 16:48 22.31237 113.93030 40 ft 2 kts 284°
2026-05-07 16:49 22.31234 113.93047 39 ft 2 kts 271°
2026-05-07 16:49 22.31235 113.93065 40 ft 2 kts 262°
2026-05-07 16:49 22.31238 113.93082 39 ft 2 kts 254°
2026-05-07 16:49 22.31241 113.93091 38 ft 1 kts 251°
2026-05-07 16:50 22.31241 113.93092 38 ft 0 kts 251°
2026-05-07 16:52 22.31240 113.93091 39 ft 0 kts 251°
2026-05-07 16:52 22.31238 113.93082 39 ft 2 kts 251°
2026-05-07 16:52 22.31228 113.93053 42 ft 7 kts 251°
2026-05-07 16:52 22.31205 113.92981 42 ft 11 kts 250°
2026-05-07 16:53 22.31175 113.92902 42 ft 11 kts 235°
2026-05-07 16:53 22.31109 113.92855 42 ft 11 kts 206°
2026-05-07 16:53 22.31038 113.92817 42 ft 11 kts 206°
2026-05-07 16:53 22.30967 113.92780 42 ft 11 kts 205°
2026-05-07 16:54 22.30895 113.92744 42 ft 11 kts 205°
2026-05-07 16:54 22.30833 113.92693 42 ft 11 kts 240°
2026-05-07 16:54 22.30808 113.92612 42 ft 11 kts 252°
2026-05-07 16:54 22.30783 113.92530 42 ft 11 kts 251°
2026-05-07 16:55 22.30757 113.92448 42 ft 11 kts 250°
2026-05-07 16:55 22.30730 113.92368 42 ft 11 kts 250°
2026-05-07 16:55 22.30703 113.92287 42 ft 11 kts 250°
2026-05-07 16:55 22.30676 113.92205 42 ft 11 kts 250°
2026-05-07 16:56 22.30650 113.92124 42 ft 11 kts 252°
2026-05-07 16:56 22.30625 113.92043 42 ft 11 kts 251°
2026-05-07 16:56 22.30574 113.91880 42 ft 11 kts 251°
2026-05-07 16:57 22.30547 113.91798 42 ft 11 kts 250°
2026-05-07 16:57 22.30520 113.91718 42 ft 11 kts 250°
2026-05-07 16:57 22.30492 113.91637 42 ft 11 kts 250°
2026-05-07 16:57 22.30465 113.91557 42 ft 11 kts 250°
2026-05-07 16:58 22.30440 113.91475 41 ft 11 kts 252°
2026-05-07 16:58 22.30415 113.91390 42 ft 13 kts 252°
2026-05-07 16:58 22.30387 113.91296 42 ft 14 kts 252°
2026-05-07 16:58 22.30353 113.91195 42 ft 15 kts 249°
2026-05-07 16:59 22.30311 113.91079 42 ft 20 kts 249°
2026-05-07 16:59 22.30262 113.90915 42 ft 25 kts 252°
2026-05-07 16:59 22.30209 113.90740 42 ft 24 kts 252°
2026-05-07 16:59 22.30149 113.90568 41 ft 25 kts 248°
2026-05-07 17:00 22.30093 113.90394 41 ft 25 kts 251°
2026-05-07 17:00 22.30037 113.90220 41 ft 25 kts 251°
2026-05-07 17:00 22.29981 113.90046 41 ft 25 kts 251°
2026-05-07 17:00 22.29925 113.89873 41 ft 25 kts 251°
2026-05-07 17:01 22.29869 113.89738 42 ft 12 kts 217°
2026-05-07 17:01 22.29795 113.89747 42 ft 11 kts 162°
2026-05-07 17:01 22.29722 113.89773 42 ft 11 kts 160°
2026-05-07 17:01 22.29655 113.89810 42 ft 11 kts 135°
2026-05-07 17:02 22.29648 113.89884 42 ft 10 kts 74°
2026-05-07 17:02 22.29684 113.89990 41 ft 29 kts 70°
2026-05-07 17:02 22.29838 113.90468 40 ft 107 kts 71°
2026-05-07 17:02 22.30159 113.91464 41 ft 171 kts 71°
2026-05-07 17:03 22.30543 113.92727 640 ft 179 kts 73°
2026-05-07 17:03 22.30937 113.94045 1307 ft 189 kts 73°
2026-05-07 17:03 22.31369 113.95414 2009 ft 197 kts 72°
2026-05-07 17:03 22.31865 113.96866 2423 ft 215 kts 71°
2026-05-07 17:04 22.32360 113.98428 3001 ft 223 kts 72°
2026-05-07 17:04 22.32881 114.00038 3628 ft 232 kts 71°
2026-05-07 17:04 22.33445 114.01734 4101 ft 248 kts 71°
2026-05-07 17:04 22.33849 114.03589 4501 ft 264 kts 89°
2026-05-07 17:05 22.33514 114.05559 5135 ft 269 kts 114°
2026-05-07 17:05 22.32498 114.07240 5999 ft 271 kts 134°
2026-05-07 17:05 22.30972 114.08474 6601 ft 281 kts 157°
2026-05-07 17:05 22.29053 114.08901 7229 ft 285 kts 182°
2026-05-07 17:06 22.27106 114.08781 8026 ft 284 kts 185°
2026-05-07 17:06 22.25127 114.08694 8894 ft 285 kts 181°
2026-05-07 17:06 22.23124 114.08676 9646 ft 291 kts 182°
2026-05-07 17:06 22.21077 114.08618 10275 ft 299 kts 182°
2026-05-07 17:07 22.18921 114.08612 10530 ft 321 kts 178°
2026-05-07 17:07 22.16690 114.09240 10680 ft 349 kts 153°
2026-05-07 17:07 22.14796 114.11017 10860 ft 377 kts 126°
2026-05-07 17:07 22.13528 114.13539 11237 ft 390 kts 116°
2026-05-07 17:08 22.12371 114.16217 11883 ft 399 kts 116°
2026-05-07 17:08 22.11159 114.18940 12733 ft 404 kts 117°
2026-05-07 17:08 22.09891 114.21662 13601 ft 409 kts 118°
2026-05-07 17:08 22.09030 114.23476 14118 ft 413 kts 118°
2026-05-07 17:09 22.06918 114.26927 14903 ft 417 kts 138°
2026-05-07 17:09 22.05413 114.28210 15302 ft 414 kts 147°
2026-05-07 17:09 22.03003 114.29981 15856 ft 424 kts 147°
2026-05-07 17:09 22.00583 114.31828 16582 ft 428 kts 146°
2026-05-07 17:10 21.98169 114.33721 17367 ft 431 kts 145°
2026-05-07 17:10 21.95735 114.35644 18090 ft 436 kts 145°
2026-05-07 17:10 21.93276 114.37587 18689 ft 441 kts 145°
2026-05-07 17:10 21.90786 114.39550 19264 ft 446 kts 145°
2026-05-07 17:11 21.88268 114.41531 19863 ft 451 kts 145°
2026-05-07 17:11 21.85880 114.43711 20294 ft 456 kts 132°
2026-05-07 17:11 21.84140 114.46598 20748 ft 465 kts 113°
2026-05-07 17:11 21.83184 114.49918 21288 ft 466 kts 104°
2026-05-07 17:12 21.82371 114.53317 21780 ft 472 kts 104°
2026-05-07 17:12 21.81551 114.56713 22335 ft 476 kts 104°
2026-05-07 17:12 21.80697 114.60169 22914 ft 480 kts 105°
2026-05-07 17:12 21.79817 114.63647 23473 ft 484 kts 105°
2026-05-07 17:13 21.78917 114.67152 23916 ft 488 kts 105°
2026-05-07 17:13 21.78004 114.70683 24371 ft 492 kts 105°
2026-05-07 17:13 21.77082 114.74239 24848 ft 494 kts 105°
2026-05-07 17:13 21.76158 114.77809 25315 ft 497 kts 105°
2026-05-07 17:14 21.75227 114.81403 25764 ft 500 kts 105°
2026-05-07 17:14 21.74359 114.85035 26175 ft 503 kts 100°
2026-05-07 17:14 21.74064 114.88780 26574 ft 505 kts 89°
2026-05-07 17:14 21.74120 114.92562 26994 ft 507 kts 87°
2026-05-07 17:15 21.74235 114.96364 27398 ft 510 kts 87°
2026-05-07 17:15 21.74325 115.00194 27799 ft 513 kts 88°
2026-05-07 17:15 21.74366 115.04043 28212 ft 516 kts 88°
2026-05-07 17:15 21.74367 115.07910 28615 ft 518 kts 89°
2026-05-07 17:16 21.74347 115.11798 28990 ft 521 kts 89°
2026-05-07 17:16 21.74323 115.15701 29328 ft 524 kts 89°
2026-05-07 17:16 21.74305 115.19624 29662 ft 526 kts 89°
2026-05-07 17:16 21.74292 115.23569 29970 ft 528 kts 88°
2026-05-07 17:17 21.74283 115.27530 30271 ft 530 kts 88°
2026-05-07 17:17 21.74277 115.31490 30628 ft 529 kts 88°
2026-05-07 17:17 21.74269 115.35440 31024 ft 528 kts 89°
2026-05-07 17:17 21.74260 115.39388 31417 ft 527 kts 89°
2026-05-07 17:18 21.74250 115.43329 31807 ft 526 kts 89°
2026-05-07 17:18 21.74238 115.47257 32180 ft 526 kts 89°
2026-05-07 17:18 21.74225 115.51137 32564 ft 525 kts 89°
2026-05-07 17:18 21.74212 115.55059 32946 ft 524 kts 89°
2026-05-07 17:19 21.74197 115.58975 33335 ft 523 kts 89°
2026-05-07 17:19 21.74183 115.62888 33729 ft 523 kts 89°
2026-05-07 17:19 21.74169 115.66795 34093 ft 522 kts 89°
2026-05-07 17:19 21.74155 115.70696 34407 ft 521 kts 89°
2026-05-07 17:20 21.74141 115.74592 34721 ft 521 kts 89°
2026-05-07 17:20 21.74125 115.78490 34880 ft 524 kts 89°
2026-05-07 17:20 21.74091 115.86353 34928 ft 524 kts 89°
2026-05-07 17:21 21.74051 115.94140 34935 ft 518 kts 89°
2026-05-07 17:21 21.74009 116.01884 34934 ft 517 kts 89°
2026-05-07 17:22 21.73964 116.09624 34938 ft 517 kts 89°
2026-05-07 17:22 21.73915 116.17363 34934 ft 518 kts 89°
2026-05-07 17:23 21.73862 116.25120 34935 ft 519 kts 89°
2026-05-07 17:23 21.73805 116.32884 34933 ft 520 kts 89°
2026-05-07 17:24 21.73745 116.40613 34929 ft 520 kts 89°
2026-05-07 17:24 21.73681 116.48400 34936 ft 521 kts 89°
2026-05-07 17:25 21.73614 116.56196 34934 ft 521 kts 89°
2026-05-07 17:25 21.73542 116.63992 34934 ft 521 kts 89°
2026-05-07 17:26 21.73470 116.71793 34930 ft 521 kts 88°
2026-05-07 17:26 21.74231 116.79507 34936 ft 518 kts 76°
2026-05-07 17:27 21.76300 116.86882 34936 ft 514 kts 66°
2026-05-07 17:27 21.78957 116.94020 34935 ft 514 kts 65°
2026-05-07 17:28 21.81615 117.01167 34933 ft 514 kts 66°
2026-05-07 17:28 21.84224 117.08339 34934 ft 515 kts 66°
2026-05-07 17:29 21.86813 117.15523 34933 ft 515 kts 66°
2026-05-07 17:29 21.89399 117.22708 34931 ft 515 kts 66°
2026-05-07 17:30 21.91986 117.29895 34931 ft 515 kts 66°
2026-05-07 17:30 21.94569 117.37083 34934 ft 514 kts 66°
2026-05-07 17:31 21.97149 117.44271 34931 ft 514 kts 66°
2026-05-07 17:31 21.99909 117.51307 34931 ft 512 kts 60°
2026-05-07 17:32 22.03548 117.57867 34937 ft 509 kts 55°
2026-05-07 17:32 22.07303 117.64345 34940 ft 510 kts 56°
2026-05-07 17:33 22.11020 117.70857 34928 ft 510 kts 56°
2026-05-07 17:33 22.14710 117.77396 34924 ft 510 kts 56°
2026-05-07 17:34 22.18393 117.83935 34929 ft 510 kts 56°
2026-05-07 17:34 22.22080 117.90483 34931 ft 510 kts 56°
2026-05-07 17:35 22.25766 117.97033 34928 ft 510 kts 56°
2026-05-07 17:35 22.29476 118.03568 34931 ft 510 kts 55°
2026-05-07 17:36 22.33281 118.10029 34930 ft 510 kts 54°
2026-05-07 17:36 22.37086 118.16502 34928 ft 510 kts 55°
2026-05-07 17:37 22.40866 118.22988 34933 ft 510 kts 55°
2026-05-07 17:37 22.44575 118.29523 34932 ft 510 kts 56°
2026-05-07 17:38 22.48262 118.36074 34923 ft 510 kts 56°
2026-05-07 17:38 22.51937 118.42584 34935 ft 511 kts 56°
2026-05-07 17:39 22.55643 118.49145 34945 ft 511 kts 56°
2026-05-07 17:39 22.59365 118.55713 34942 ft 512 kts 55°
2026-05-07 17:40 22.63110 118.62265 34930 ft 512 kts 55°
2026-05-07 17:40 22.66860 118.68832 34933 ft 513 kts 55°
2026-05-07 17:41 22.70607 118.75414 34946 ft 514 kts 55°
2026-05-07 17:41 22.74355 118.82010 34935 ft 514 kts 55°
2026-05-07 17:42 22.78105 118.88620 34939 ft 515 kts 55°
2026-05-07 17:42 22.81854 118.95235 34939 ft 516 kts 55°
2026-05-07 17:43 22.85609 119.01867 34937 ft 516 kts 55°
2026-05-07 17:43 22.89362 119.08507 34938 ft 516 kts 55°
2026-05-07 17:44 22.93111 119.15148 34937 ft 516 kts 55°
2026-05-07 17:44 22.96860 119.21795 34941 ft 516 kts 55°
2026-05-07 17:45 23.00578 119.28398 34936 ft 516 kts 55°
2026-05-07 17:45 23.04323 119.35059 34940 ft 516 kts 55°
2026-05-07 17:46 23.08059 119.41711 34944 ft 516 kts 55°
2026-05-07 17:46 23.11797 119.48375 34941 ft 516 kts 55°
2026-05-07 17:47 23.15533 119.55045 34941 ft 516 kts 55°
2026-05-07 17:47 23.19264 119.61714 34940 ft 516 kts 55°
2026-05-07 17:48 23.22992 119.68392 34942 ft 516 kts 55°
2026-05-07 17:48 23.26715 119.75075 34943 ft 516 kts 56°
2026-05-07 17:49 23.30431 119.81753 34944 ft 516 kts 56°
2026-05-07 17:49 23.34158 119.88447 34944 ft 516 kts 54°
2026-05-07 17:50 23.38420 119.94594 34947 ft 510 kts 44°
2026-05-07 17:50 23.43494 119.99952 34947 ft 507 kts 39°
2026-05-07 17:51 23.48679 120.05190 34947 ft 508 kts 39°
2026-05-07 17:51 23.53843 120.10469 34942 ft 509 kts 39°
2026-05-07 17:52 23.58990 120.15784 34950 ft 510 kts 39°
2026-05-07 17:52 23.64134 120.21113 34949 ft 510 kts 39°
2026-05-07 17:53 23.69284 120.26450 34953 ft 511 kts 39°
2026-05-07 17:53 23.74438 120.31793 34964 ft 511 kts 39°
2026-05-07 17:54 23.79590 120.37142 34962 ft 511 kts 39°
2026-05-07 17:54 23.84709 120.42462 34970 ft 511 kts 39°
2026-05-07 17:55 23.89865 120.47828 34973 ft 512 kts 39°
2026-05-07 17:55 23.95003 120.53208 34973 ft 512 kts 40°
2026-05-07 17:56 24.00125 120.58617 34987 ft 512 kts 40°
2026-05-07 17:56 24.05248 120.64035 34984 ft 512 kts 40°
2026-05-07 17:57 24.09512 120.68544 34985 ft 512 kts 40°
2026-05-07 17:57 24.15496 120.74876 34991 ft 512 kts 40°
2026-05-07 17:58 24.19755 120.79388 34988 ft 512 kts 40°
2026-05-07 17:58 24.24880 120.84823 34991 ft 513 kts 40°
2026-05-07 17:59 24.29991 120.90252 35003 ft 513 kts 40°
2026-05-07 17:59 24.35116 120.95700 35024 ft 512 kts 40°
2026-05-07 18:00 24.40238 121.01155 35016 ft 513 kts 41°
2026-05-07 18:00 24.44962 121.07056 35019 ft 516 kts 48°
2026-05-07 18:01 24.49405 121.13263 35044 ft 518 kts 49°
2026-05-07 18:01 24.53853 121.19491 35026 ft 518 kts 48°
2026-05-07 18:02 24.60569 121.28782 35013 ft 518 kts 48°
2026-05-07 18:03 24.65056 121.34976 35000 ft 518 kts 48°
2026-05-07 18:03 24.69535 121.41174 34994 ft 517 kts 48°
2026-05-07 18:04 24.74009 121.47378 34961 ft 518 kts 48°
2026-05-07 18:04 24.78477 121.53581 34963 ft 516 kts 48°
2026-05-07 18:05 24.82940 121.59787 34942 ft 517 kts 48°
2026-05-07 18:05 24.87367 121.65948 34949 ft 517 kts 48°
2026-05-07 18:06 24.91868 121.72123 34933 ft 516 kts 46°
2026-05-07 18:06 24.96581 121.78078 34946 ft 516 kts 45°
2026-05-07 18:07 25.01321 121.84022 34933 ft 516 kts 45°
2026-05-07 18:07 25.06015 121.90012 34949 ft 516 kts 46°
2026-05-07 18:08 25.10698 121.96020 34939 ft 517 kts 45°
2026-05-07 18:08 25.15391 122.02045 34937 ft 517 kts 46°
2026-05-07 18:09 25.20063 122.08093 34939 ft 518 kts 46°
2026-05-07 18:09 25.24729 122.14149 34939 ft 518 kts 46°
2026-05-07 18:10 25.29395 122.20209 34937 ft 518 kts 46°
2026-05-07 18:10 25.34062 122.26275 34938 ft 518 kts 46°
2026-05-07 18:11 25.38730 122.32350 34936 ft 518 kts 46°
2026-05-07 18:11 25.43371 122.38398 34944 ft 518 kts 46°
2026-05-07 18:12 25.48035 122.44485 34939 ft 518 kts 46°
2026-05-07 18:12 25.52704 122.50577 34940 ft 518 kts 46°
2026-05-07 18:13 25.57385 122.56651 34946 ft 519 kts 46°
2026-05-07 18:13 25.62068 122.62728 34942 ft 519 kts 46°
2026-05-07 18:14 25.66752 122.68822 34943 ft 519 kts 46°
2026-05-07 18:14 25.71423 122.74912 34947 ft 519 kts 46°
2026-05-07 18:15 25.76100 122.81016 34946 ft 519 kts 46°
2026-05-07 18:15 25.80772 122.87123 34946 ft 519 kts 46°
2026-05-07 18:16 25.85448 122.93245 34947 ft 520 kts 46°
2026-05-07 18:16 25.90121 122.99368 34950 ft 520 kts 46°
2026-05-07 18:17 25.94791 123.05498 34949 ft 520 kts 46°
2026-05-07 18:17 25.99426 123.11596 34950 ft 520 kts 46°
2026-05-07 18:18 26.04096 123.17750 34952 ft 520 kts 46°
2026-05-07 18:18 26.08761 123.23906 34950 ft 520 kts 46°
2026-05-07 18:19 26.13421 123.30064 34950 ft 520 kts 46°
2026-05-07 18:19 26.18081 123.36230 34951 ft 520 kts 46°
2026-05-07 18:20 26.22738 123.42400 34956 ft 520 kts 46°
2026-05-07 18:20 26.27389 123.48570 34954 ft 520 kts 46°
2026-05-07 18:21 26.32044 123.54755 34956 ft 521 kts 46°
2026-05-07 18:21 26.36666 123.60904 34956 ft 521 kts 46°
2026-05-07 18:22 26.41316 123.67098 34954 ft 521 kts 46°
2026-05-07 18:22 26.45967 123.73303 34955 ft 521 kts 46°
2026-05-07 18:23 26.50618 123.79518 34957 ft 522 kts 46°
2026-05-07 18:23 26.55272 123.85743 34956 ft 522 kts 46°
2026-05-07 18:24 26.59925 123.91978 34960 ft 522 kts 46°
2026-05-07 18:24 26.64580 123.98224 34958 ft 523 kts 46°
2026-05-07 18:25 26.69236 124.04469 34962 ft 523 kts 46°
2026-05-07 18:25 26.73899 124.10714 34965 ft 523 kts 46°
2026-05-07 18:26 26.78557 124.16963 34966 ft 523 kts 46°
2026-05-07 18:26 26.83210 124.23220 34964 ft 523 kts 46°
2026-05-07 18:27 26.87864 124.29487 34966 ft 523 kts 46°
2026-05-07 18:27 26.92512 124.35755 34965 ft 523 kts 46°
2026-05-07 18:28 26.97138 124.42001 34965 ft 523 kts 46°
2026-05-07 18:28 27.01794 124.48281 34960 ft 523 kts 46°
2026-05-07 18:29 27.06451 124.54554 34977 ft 524 kts 46°
2026-05-07 18:29 27.11109 124.60842 34979 ft 524 kts 46°
2026-05-07 18:30 27.15763 124.67135 34965 ft 524 kts 46°
2026-05-07 18:30 27.20411 124.73432 34974 ft 524 kts 46°
2026-05-07 18:31 27.25061 124.79740 34978 ft 524 kts 46°
2026-05-07 18:31 27.29712 124.86059 34976 ft 524 kts 46°
2026-05-07 18:32 27.32492 124.89841 34976 ft 524 kts 46°
2026-05-07 18:32 27.37138 124.96168 34978 ft 525 kts 46°
2026-05-07 18:33 27.41825 125.02545 34977 ft 525 kts 46°
2026-05-07 18:33 27.46476 125.08816 34982 ft 526 kts 46°
2026-05-07 18:34 27.51171 125.15140 34976 ft 526 kts 46°
2026-05-07 18:34 27.55862 125.21478 34982 ft 527 kts 46°
2026-05-07 18:35 27.60551 125.27831 34979 ft 527 kts 46°
2026-05-07 18:35 27.65242 125.34198 34985 ft 528 kts 46°
2026-05-07 18:36 27.69933 125.40574 34986 ft 528 kts 46°
2026-05-07 18:36 27.74624 125.46959 34983 ft 528 kts 46°
2026-05-07 18:37 27.79313 125.53350 34984 ft 529 kts 46°
2026-05-07 18:37 27.84006 125.59755 34985 ft 529 kts 46°
2026-05-07 18:38 27.88696 125.66166 34990 ft 530 kts 45°
2026-05-07 18:38 27.93390 125.72593 34989 ft 530 kts 45°
2026-05-07 18:39 27.98088 125.79035 34985 ft 531 kts 45°
2026-05-07 18:39 28.02785 125.85484 34988 ft 531 kts 45°
2026-05-07 18:40 28.07486 125.91949 34993 ft 532 kts 45°
2026-05-07 18:40 28.12163 125.98392 34991 ft 533 kts 45°
2026-05-07 18:41 28.16903 126.04931 34995 ft 534 kts 45°
2026-05-07 18:41 28.21582 126.11396 34996 ft 534 kts 45°
2026-05-07 18:42 28.26297 126.17920 34996 ft 535 kts 45°
2026-05-07 18:42 28.31012 126.24456 34993 ft 535 kts 45°
2026-05-07 18:43 28.35720 126.30990 34988 ft 534 kts 45°
2026-05-07 18:43 28.40420 126.37524 34984 ft 534 kts 45°
2026-05-07 18:44 28.45116 126.44063 34992 ft 534 kts 45°
2026-05-07 18:44 28.49802 126.50598 34993 ft 533 kts 45°
2026-05-07 18:45 28.54486 126.57140 34991 ft 533 kts 45°
2026-05-07 18:45 28.59137 126.63644 34992 ft 533 kts 46°
2026-05-07 18:46 28.63814 126.70197 34997 ft 533 kts 46°
2026-05-07 18:46 28.67728 126.75689 34997 ft 533 kts 46°
2026-05-07 18:47 28.72400 126.82253 34995 ft 533 kts 46°
2026-05-07 18:47 28.77067 126.88820 34989 ft 533 kts 46°
2026-05-07 18:48 28.81699 126.95350 34994 ft 533 kts 46°
2026-05-07 18:48 28.86358 127.01927 34992 ft 533 kts 46°
2026-05-07 18:49 28.91018 127.08517 34996 ft 534 kts 46°
2026-05-07 18:49 28.95680 127.15117 34988 ft 534 kts 46°
2026-05-07 18:50 29.00345 127.21735 34994 ft 535 kts 46°
2026-05-07 18:50 29.05014 127.28369 34991 ft 536 kts 46°
2026-05-07 18:51 29.09679 127.35008 34995 ft 536 kts 46°
2026-05-07 18:51 29.14349 127.41663 34995 ft 537 kts 46°
2026-05-07 18:52 29.19022 127.48335 34992 ft 537 kts 46°
2026-05-07 18:52 29.23691 127.55012 34993 ft 537 kts 46°
2026-05-07 18:53 29.28359 127.61698 34991 ft 537 kts 45°
2026-05-07 18:53 29.33022 127.68388 34992 ft 537 kts 46°
2026-05-07 18:54 29.37653 127.75043 34994 ft 537 kts 46°
2026-05-07 18:54 29.42311 127.81747 34989 ft 537 kts 46°
2026-05-07 18:55 29.46964 127.88456 34989 ft 537 kts 46°
2026-05-07 18:55 29.51619 127.95179 34991 ft 538 kts 46°
2026-05-07 18:56 29.56276 128.01908 34990 ft 538 kts 46°
2026-05-07 18:56 29.60936 128.08642 34988 ft 539 kts 46°
2026-05-07 18:57 29.65596 128.15391 34988 ft 539 kts 46°
2026-05-07 18:57 29.70255 128.22151 34987 ft 539 kts 46°
2026-05-07 18:58 29.74913 128.28923 34984 ft 540 kts 46°
2026-05-07 18:58 29.79574 128.35711 34984 ft 540 kts 46°
2026-05-07 18:59 29.84229 128.42500 34983 ft 540 kts 46°
2026-05-07 18:59 29.88884 128.49301 34984 ft 540 kts 46°
2026-05-07 19:00 29.92085 128.53984 34984 ft 540 kts 46°
2026-05-07 19:00 29.96701 128.60748 34983 ft 540 kts 46°
2026-05-07 19:01 30.01341 128.67557 34982 ft 540 kts 46°
2026-05-07 19:01 30.05975 128.74370 34980 ft 539 kts 46°
2026-05-07 19:02 30.10602 128.81185 34983 ft 539 kts 46°
2026-05-07 19:02 30.15228 128.88008 34973 ft 539 kts 46°
2026-05-07 19:03 30.19844 128.94830 34974 ft 539 kts 47°
2026-05-07 19:03 30.24457 129.01657 34986 ft 539 kts 47°
2026-05-07 19:04 30.29067 129.08489 34981 ft 538 kts 47°
2026-05-07 19:04 30.33672 129.15324 34977 ft 538 kts 47°
2026-05-07 19:05 30.38273 129.22168 34976 ft 538 kts 47°
2026-05-07 19:05 30.42864 129.29008 34981 ft 538 kts 47°
2026-05-07 19:06 30.47447 129.35849 34981 ft 537 kts 47°
2026-05-07 19:06 30.54313 129.46120 34971 ft 536 kts 47°
2026-05-07 19:07 30.58846 129.52915 34977 ft 536 kts 47°
2026-05-07 19:07 30.63404 129.59760 34976 ft 536 kts 47°
2026-05-07 19:08 30.67965 129.66620 34976 ft 536 kts 47°
2026-05-07 19:08 30.72518 129.73481 34972 ft 536 kts 48°
2026-05-07 19:09 30.77075 129.80361 34972 ft 537 kts 48°
2026-05-07 19:09 30.81630 129.87250 34971 ft 538 kts 48°
2026-05-07 19:10 30.86048 129.94304 34973 ft 542 kts 54°
2026-05-07 19:10 30.90024 130.01766 34980 ft 543 kts 56°
2026-05-07 19:11 30.93945 130.09289 34982 ft 543 kts 56°
2026-05-07 19:11 30.97886 130.16788 34975 ft 543 kts 56°
2026-05-07 19:12 31.01824 130.24230 34967 ft 542 kts 56°
2026-05-07 19:12 31.05776 130.31700 34969 ft 541 kts 56°
2026-05-07 19:13 31.09721 130.39175 34969 ft 541 kts 56°
2026-05-07 19:13 31.13656 130.46652 34972 ft 540 kts 56°
2026-05-07 19:14 31.17587 130.54137 34975 ft 540 kts 56°
2026-05-07 19:14 31.21509 130.61618 34958 ft 540 kts 56°
2026-05-07 19:15 31.25428 130.69110 34978 ft 540 kts 56°
2026-05-07 19:15 31.29347 130.76614 34961 ft 541 kts 56°
2026-05-07 19:16 31.33264 130.84128 34952 ft 541 kts 56°
2026-05-07 19:16 31.37178 130.91654 34956 ft 542 kts 56°
2026-05-07 19:17 31.41092 130.99191 34962 ft 542 kts 56°
2026-05-07 19:17 31.45003 131.06740 34960 ft 543 kts 56°
2026-05-07 19:18 31.48914 131.14306 34959 ft 543 kts 56°
2026-05-07 19:18 31.52821 131.21876 34957 ft 543 kts 56°
2026-05-07 19:19 31.56685 131.29380 34951 ft 543 kts 56°
2026-05-07 19:19 31.60584 131.36963 34945 ft 543 kts 56°
2026-05-07 19:20 31.64476 131.44554 34933 ft 543 kts 56°
2026-05-07 19:20 31.68362 131.52156 34924 ft 543 kts 56°
2026-05-07 19:21 31.72242 131.59763 34926 ft 542 kts 56°
2026-05-07 19:21 31.76115 131.67371 34926 ft 543 kts 56°
2026-05-07 19:22 31.79987 131.74991 34930 ft 543 kts 56°
2026-05-07 19:22 31.83855 131.82618 34937 ft 543 kts 56°
2026-05-07 19:23 31.87717 131.90249 34934 ft 543 kts 57°
2026-05-07 19:23 31.91552 131.97843 34927 ft 543 kts 57°
2026-05-07 19:24 31.95409 132.05495 34929 ft 544 kts 57°
2026-05-07 19:24 31.99266 132.13147 34926 ft 544 kts 57°
2026-05-07 19:25 32.03113 132.20823 34924 ft 544 kts 57°
2026-05-07 19:25 32.06955 132.28501 34923 ft 544 kts 57°
2026-05-07 19:26 32.10803 132.36196 34921 ft 544 kts 57°
2026-05-07 19:26 32.14473 132.44014 34923 ft 546 kts 61°
2026-05-07 19:27 32.17858 132.52041 34921 ft 546 kts 62°
2026-05-07 19:27 32.21215 132.60103 34917 ft 547 kts 62°
2026-05-07 19:28 32.24594 132.68147 34918 ft 547 kts 62°
2026-05-07 19:28 32.27987 132.76188 34918 ft 547 kts 62°
2026-05-07 19:29 32.31373 132.84227 34908 ft 544 kts 62°
2026-05-07 19:29 32.34714 132.92185 34908 ft 543 kts 62°
2026-05-07 19:30 32.38058 133.00171 34912 ft 541 kts 62°
2026-05-07 19:30 32.41393 133.08153 34910 ft 541 kts 62°
2026-05-07 19:31 32.44720 133.16135 34913 ft 541 kts 62°
2026-05-07 19:31 32.47985 133.23983 34913 ft 541 kts 62°
2026-05-07 19:32 32.51309 133.31993 34911 ft 542 kts 62°
2026-05-07 19:32 32.54635 133.40025 34913 ft 543 kts 62°
2026-05-07 19:33 32.57963 133.48059 34911 ft 543 kts 62°
2026-05-07 19:33 32.61319 133.56095 34904 ft 544 kts 62°
2026-05-07 19:34 32.64099 133.62778 34909 ft 544 kts 63°
2026-05-07 19:34 32.67404 133.70849 34905 ft 544 kts 63°
2026-05-07 19:35 32.70691 133.78931 34910 ft 543 kts 63°
2026-05-07 19:35 32.73976 133.87010 34911 ft 543 kts 63°
2026-05-07 19:36 32.77258 133.95093 34907 ft 543 kts 63°
2026-05-07 19:36 32.80534 134.03176 34907 ft 542 kts 64°
2026-05-07 19:37 32.83376 134.11466 34902 ft 542 kts 73°
2026-05-07 19:37 32.85484 134.20072 34911 ft 541 kts 75°
2026-05-07 19:38 32.87537 134.28612 34906 ft 541 kts 74°
2026-05-07 19:38 32.89650 134.37198 34905 ft 540 kts 74°
2026-05-07 19:39 32.91782 134.45776 34905 ft 540 kts 74°
2026-05-07 19:39 32.93906 134.54358 34902 ft 540 kts 74°
2026-05-07 19:40 32.96017 134.62936 34904 ft 540 kts 74°
2026-05-07 19:40 32.98121 134.71514 34905 ft 539 kts 74°
2026-05-07 19:41 33.00219 134.80089 34904 ft 539 kts 74°
2026-05-07 19:41 33.02302 134.88658 34903 ft 539 kts 74°
2026-05-07 19:42 33.04377 134.97237 34902 ft 538 kts 75°
2026-05-07 19:42 33.06430 135.05750 34902 ft 538 kts 75°
2026-05-07 19:43 33.08490 135.14317 34905 ft 537 kts 75°
2026-05-07 19:43 33.10534 135.22888 34899 ft 537 kts 75°
2026-05-07 19:44 33.12461 135.31492 34905 ft 536 kts 76°
2026-05-07 19:44 33.14347 135.40091 34903 ft 535 kts 76°
2026-05-07 19:45 33.16241 135.48679 34903 ft 535 kts 76°
2026-05-07 19:45 33.18136 135.57251 34906 ft 534 kts 76°
2026-05-07 19:46 33.20026 135.65820 34904 ft 533 kts 76°
2026-05-07 19:46 33.21903 135.74375 34900 ft 533 kts 76°
2026-05-07 19:47 33.23774 135.82931 34906 ft 532 kts 76°
2026-05-07 19:47 33.25635 135.91479 34901 ft 532 kts 76°
2026-05-07 19:48 33.27479 136.00038 34901 ft 532 kts 76°
2026-05-07 19:48 33.29312 136.08597 34899 ft 532 kts 76°
2026-05-07 19:49 33.31141 136.17159 34902 ft 532 kts 76°
2026-05-07 19:49 33.32957 136.25687 34899 ft 532 kts 76°
2026-05-07 19:50 33.34781 136.34278 34901 ft 533 kts 76°
2026-05-07 19:50 33.36599 136.42875 34900 ft 533 kts 76°
2026-05-07 19:51 33.38412 136.51483 34898 ft 534 kts 76°
2026-05-07 19:51 33.40222 136.60106 34897 ft 534 kts 76°
2026-05-07 19:52 33.42026 136.68731 34900 ft 534 kts 76°
2026-05-07 19:52 33.43824 136.77361 34901 ft 534 kts 76°
2026-05-07 19:53 33.45614 136.85985 34893 ft 533 kts 76°
2026-05-07 19:53 33.47396 136.94607 34896 ft 533 kts 76°
2026-05-07 19:54 33.49170 137.03214 34895 ft 532 kts 76°
2026-05-07 19:54 33.50935 137.11817 34899 ft 531 kts 76°
2026-05-07 19:55 33.52692 137.20413 34896 ft 531 kts 76°
2026-05-07 19:55 33.54444 137.29013 34895 ft 530 kts 76°
2026-05-07 19:56 33.56187 137.37602 34898 ft 530 kts 76°
2026-05-07 19:56 33.57922 137.46188 34899 ft 530 kts 76°
2026-05-07 19:57 33.59640 137.54719 34899 ft 530 kts 76°
2026-05-07 19:57 33.61811 137.63140 34900 ft 528 kts 66°
2026-05-07 19:58 33.65087 137.70990 34903 ft 525 kts 59°
2026-05-07 19:58 33.68674 137.78630 34901 ft 525 kts 59°
2026-05-07 19:59 33.72236 137.86311 34902 ft 525 kts 59°
2026-05-07 19:59 33.75752 137.94015 34898 ft 525 kts 59°
2026-05-07 20:00 33.79252 138.01722 34899 ft 525 kts 59°
2026-05-07 20:00 33.82744 138.09421 34900 ft 525 kts 60°
2026-05-07 20:01 33.86216 138.17085 34894 ft 524 kts 60°
2026-05-07 20:01 33.89704 138.24801 34897 ft 524 kts 60°
2026-05-07 20:02 33.93175 138.32515 34900 ft 524 kts 60°
2026-05-07 20:02 33.94910 138.36397 34333 ft 533 kts 60°
2026-05-07 20:02 33.96682 138.40371 33417 ft 540 kts 60°
2026-05-07 20:03 33.98457 138.44363 32491 ft 541 kts 61°
2026-05-07 20:03 34.00232 138.48357 31577 ft 541 kts 61°
2026-05-07 20:03 34.02009 138.52360 30644 ft 542 kts 61°
2026-05-07 20:03 34.03786 138.56365 29913 ft 539 kts 61°
2026-05-07 20:04 34.05545 138.60332 29203 ft 534 kts 61°
2026-05-07 20:04 34.07283 138.64257 28545 ft 528 kts 61°
2026-05-07 20:04 34.09006 138.68152 27950 ft 523 kts 61°
2026-05-07 20:04 34.10709 138.72006 27334 ft 518 kts 61°
2026-05-07 20:05 34.12395 138.75823 26741 ft 513 kts 61°
2026-05-07 20:05 34.14066 138.79614 26163 ft 509 kts 61°
2026-05-07 20:05 34.15703 138.83329 25586 ft 506 kts 61°
2026-05-07 20:05 34.17347 138.87066 25001 ft 502 kts 61°
2026-05-07 20:06 34.18981 138.90782 24421 ft 500 kts 61°
2026-05-07 20:06 34.20607 138.94484 23835 ft 498 kts 61°
2026-05-07 20:06 34.22217 138.98174 23226 ft 496 kts 61°
2026-05-07 20:06 34.23809 139.01856 22567 ft 493 kts 61°
2026-05-07 20:07 34.25386 139.05515 21968 ft 489 kts 62°
2026-05-07 20:07 34.26952 139.09143 21393 ft 485 kts 62°
2026-05-07 20:07 34.28488 139.12754 20837 ft 481 kts 64°
2026-05-07 20:07 34.29830 139.16425 20454 ft 472 kts 67°
2026-05-07 20:08 34.31083 139.20060 20085 ft 465 kts 67°
2026-05-07 20:08 34.32303 139.23644 19716 ft 458 kts 68°
2026-05-07 20:08 34.33510 139.27188 19357 ft 453 kts 68°
2026-05-07 20:08 34.34709 139.30696 19002 ft 452 kts 68°
2026-05-07 20:09 34.35918 139.34218 18647 ft 453 kts 68°
2026-05-07 20:09 34.37131 139.37742 18284 ft 454 kts 68°
2026-05-07 20:09 34.38341 139.41257 17881 ft 451 kts 68°
2026-05-07 20:10 34.40734 139.48214 17121 ft 444 kts 68°
2026-05-07 20:10 34.41916 139.51657 16778 ft 441 kts 68°
2026-05-07 20:10 34.43088 139.55076 16420 ft 438 kts 68°
2026-05-07 20:10 34.44248 139.58466 16068 ft 435 kts 68°
2026-05-07 20:11 34.45403 139.61841 15721 ft 433 kts 68°
2026-05-07 20:11 34.46553 139.65206 15381 ft 431 kts 68°
2026-05-07 20:11 34.47761 139.68506 15029 ft 427 kts 62°
2026-05-07 20:11 34.49471 139.71457 14702 ft 430 kts 47°
2026-05-07 20:12 34.51640 139.73947 14370 ft 430 kts 36°
2026-05-07 20:12 34.54138 139.75887 14036 ft 425 kts 28°
2026-05-07 20:12 34.56706 139.77678 13701 ft 425 kts 28°
2026-05-07 20:12 34.59232 139.79453 13383 ft 424 kts 28°
2026-05-07 20:13 34.61764 139.81272 13032 ft 423 kts 29°
2026-05-07 20:13 34.64281 139.83110 12702 ft 421 kts 29°
2026-05-07 20:13 34.66788 139.84926 12353 ft 414 kts 26°
2026-05-07 20:13 34.69451 139.86125 12018 ft 401 kts
2026-05-07 20:14 34.72155 139.86439 11729 ft 385 kts
2026-05-07 20:14 34.74804 139.86745 11417 ft 380 kts
2026-05-07 20:14 34.77410 139.87090 11103 ft 374 kts
2026-05-07 20:14 34.79973 139.87448 10812 ft 368 kts
2026-05-07 20:15 34.82497 139.87809 10514 ft 360 kts
2026-05-07 20:15 34.84921 139.88161 10214 ft 343 kts
2026-05-07 20:15 34.87238 139.88496 9939 ft 327 kts
2026-05-07 20:15 34.89435 139.88814 9762 ft 311 kts
2026-05-07 20:16 34.91580 139.89119 9436 ft 309 kts
2026-05-07 20:16 34.93678 139.89419 9180 ft 304 kts
2026-05-07 20:16 34.95729 139.89327 8899 ft 281 kts 339°
2026-05-07 20:16 34.97571 139.88720 8715 ft 279 kts 337°
2026-05-07 20:17 34.99479 139.88083 8497 ft 282 kts 338°
2026-05-07 20:17 35.01358 139.87468 8269 ft 283 kts 339°
2026-05-07 20:17 35.03263 139.86852 8035 ft 283 kts 339°
2026-05-07 20:17 35.05169 139.86242 7820 ft 283 kts 339°
2026-05-07 20:18 35.07064 139.85639 7585 ft 280 kts 339°
2026-05-07 20:18 35.08931 139.85047 7343 ft 275 kts 339°
2026-05-07 20:18 35.10740 139.84476 7181 ft 260 kts 339°
2026-05-07 20:18 35.12453 139.83935 6926 ft 249 kts 339°
2026-05-07 20:19 35.14092 139.83417 6716 ft 239 kts 338°
2026-05-07 20:19 35.15690 139.82907 6510 ft 237 kts 338°
2026-05-07 20:19 35.17291 139.82397 6292 ft 236 kts 338°
2026-05-07 20:19 35.18870 139.81898 6144 ft 233 kts 338°
2026-05-07 20:20 35.20425 139.81404 5952 ft 229 kts 338°
2026-05-07 20:20 35.21958 139.80917 5822 ft 227 kts 338°
2026-05-07 20:20 35.23502 139.80424 5721 ft 232 kts 338°
2026-05-07 20:20 35.24539 139.80093 5625 ft 234 kts 338°
2026-05-07 20:21 35.25879 139.79667 5519 ft 234 kts 338°
2026-05-07 20:21 35.27451 139.79168 5381 ft 233 kts 338°
2026-05-07 20:21 35.29014 139.78672 5255 ft 231 kts 338°
2026-05-07 20:21 35.30571 139.78197 5116 ft 230 kts 345°
2026-05-07 20:22 35.32168 139.78449 4939 ft 239 kts 25°
2026-05-07 20:22 35.33501 139.79648 4926 ft 239 kts 36°
2026-05-07 20:22 35.34788 139.80938 4712 ft 241 kts 35°
2026-05-07 20:22 35.36062 139.82211 4487 ft 236 kts 35°
2026-05-07 20:23 35.36910 139.83057 4363 ft 230 kts 35°
2026-05-07 20:23 35.38522 139.84663 4157 ft 217 kts 35°
2026-05-07 20:23 35.39691 139.85820 4068 ft 222 kts 35°
2026-05-07 20:23 35.40510 139.86629 3990 ft 226 kts 36°
2026-05-07 20:24 35.42145 139.88246 3812 ft 229 kts 36°
2026-05-07 20:24 35.43379 139.89468 3665 ft 227 kts 36°
2026-05-07 20:24 35.44557 139.90761 3502 ft 227 kts 42°
2026-05-07 20:24 35.45307 139.91681 3417 ft 226 kts 43°
2026-05-07 20:25 35.46406 139.93046 3282 ft 224 kts 43°
2026-05-07 20:25 35.47499 139.94398 3144 ft 223 kts 43°
2026-05-07 20:25 35.48592 139.95742 3012 ft 222 kts 43°
2026-05-07 20:25 35.49689 139.97086 2885 ft 223 kts 43°
2026-05-07 20:26 35.50788 139.98431 2745 ft 223 kts 43°
2026-05-07 20:26 35.51865 139.99749 2610 ft 221 kts 42°
2026-05-07 20:26 35.52998 140.00995 2448 ft 216 kts 25°
2026-05-07 20:26 35.54391 140.01368 2352 ft 197 kts 346°
2026-05-07 20:27 35.55578 140.00784 2262 ft 176 kts 320°
2026-05-07 20:27 35.56398 139.99750 2111 ft 166 kts 289°
2026-05-07 20:27 35.56664 139.98411 2055 ft 157 kts 277°
2026-05-07 20:27 35.56817 139.97134 1927 ft 144 kts 272°
2026-05-07 20:28 35.56925 139.95958 1862 ft 137 kts 272°
2026-05-07 20:28 35.56992 139.94783 1767 ft 139 kts 269°
2026-05-07 20:28 35.57010 139.93595 1626 ft 138 kts 267°
2026-05-07 20:28 35.57012 139.92428 1457 ft 136 kts 266°
2026-05-07 20:29 35.57007 139.91263 1335 ft 138 kts 267°
2026-05-07 20:29 35.56984 139.90078 1180 ft 137 kts 261°
2026-05-07 20:29 35.56982 139.88911 1061 ft 139 kts 274°
2026-05-07 20:29 35.56998 139.87721 1013 ft 139 kts 256°
2026-05-07 20:30 35.56778 139.86568 888 ft 140 kts 252°
2026-05-07 20:30 35.56457 139.85405 800 ft 143 kts 244°
2026-05-07 20:30 35.55947 139.84379 582 ft 142 kts 226°
2026-05-07 20:30 35.55253 139.83547 377 ft 133 kts 219°
2026-05-07 20:31 35.54579 139.82820 204 ft 127 kts 218°
2026-05-07 20:31 35.53948 139.82085 62 ft 124 kts 219°
2026-05-07 20:31 35.53396 139.81469 51 ft 83 kts 223°
2026-05-07 20:31 35.53029 139.81059 47 ft 54 kts 229°
2026-05-07 20:32 35.52909 139.80788 51 ft 22 kts 248°
2026-05-07 20:32 35.52898 139.80613 50 ft 21 kts 300°
2026-05-07 20:32 35.53020 139.80512 49 ft 21 kts 330°
2026-05-07 20:32 35.53148 139.80420 49 ft 21 kts 329°
2026-05-07 20:33 35.53277 139.80328 44 ft 21 kts 330°
2026-05-07 20:33 35.53406 139.80238 39 ft 21 kts 330°
2026-05-07 20:33 35.53536 139.80146 33 ft 22 kts 329°
2026-05-07 20:33 35.53681 139.80044 29 ft 25 kts 330°
2026-05-07 20:34 35.53831 139.79935 26 ft 25 kts 329°
2026-05-07 20:34 35.53984 139.79827 28 ft 25 kts 330°
2026-05-07 20:34 35.54138 139.79718 30 ft 25 kts 331°
2026-05-07 20:34 35.54291 139.79610 31 ft 25 kts 329°
2026-05-07 20:35 35.54443 139.79501 27 ft 25 kts 329°
2026-05-07 20:35 35.54584 139.79402 31 ft 21 kts 329°
2026-05-07 20:35 35.54671 139.79373 32 ft 11 kts 27°
2026-05-07 20:35 35.54726 139.79405 32 ft 8 kts 340°
2026-05-07 20:36 35.54777 139.79371 33 ft 8 kts 330°
2026-05-07 20:36 35.54817 139.79343 32 ft 5 kts 330°
2026-05-07 20:36 35.54820 139.79341 32 ft 0 kts 330°
2026-05-07 20:36 35.54826 139.79337 32 ft 1 kts 330°
2026-05-07 20:37 35.54827 139.79336 32 ft 0 kts 330°